User: anonymous   Login
Location: Unspecified
(0.0000°N, 0.0000°E)
Time: 00:00:28
(UTC+00:00)
Language:

STARLINK-34634 - Orbit

View from above orbital plane
View from above orbital plane
View from above satellite
View from above satellite

Ground track
Ground track

The orbit is defined by the following mean orbital elements,

1 65079U          26145.38493686 +.00000000 +00000-0 +93726-3 0 00005
2 65079  53.1605  27.5295 0001614  95.1299 264.9888 15.34410569    09
Epoch (UTC): 25 May 2026 09:14:18
Eccentricity: 0.0001614
inclination: 53.1605°
perigee height: 462 km
apogee height: 464 km
right ascension of ascending node: 27.5295°
argument of perigee: 95.1299°
revolutions per day: 15.34410569
mean anomaly at epoch: 264.9888°

The dashed part of the orbit path shows where the satellite is in the earth's shadow,  

DLR